Weather History for KAIT - August, 2014

Change the Weather History Date:

Friday, August 29, 2014

  Actual Average Record
Temperature  
Mean Temperature 68 °F -  
Max Temperature 71 °F 77 °F 96 °F (1961)
Min Temperature 64 °F 52 °F 34 °F (1976)
Cooling Degree Days 2    
Growing Degree Days 18 (Base 50)    
Moisture  
Dew Point 62 °F    
Average Humidity 82    
Maximum Humidity 88    
Minimum Humidity 78    
Precipitation  
Precipitation 0.41 in - - ()
Sea Level Pressure  
Sea Level Pressure 29.79 in    
Wind  
Wind Speed 3 mph (ESE)    
Max Wind Speed 7 mph    
Max Gust Speed -    
Visibility 7 miles    
Events Thunderstorm    
Averages and records for this station are not official NWS values.
T = Trace of Precipitation, MM = Missing Value Source: NWS Daily Summary

Daily Weather History Graph

Daily Weather History Graph

Search for Another Location

Airport or City:

Trip Planner

Search our weather history database for the weather conditions in past years. The results will help you decide how hot, cold, wet, or windy it might be!

Date:

Astronomy

Aug. 29, 2014 Rise Set
Actual Time 6:30 AM CDT 7:59 PM CDT
Civil Twilight 5:59 AM CDT 8:30 PM CDT
Nautical Twilight 5:21 AM CDT 9:08 PM CDT
Astronomical Twilight 4:39 AM CDT 9:49 PM CDT
Moon 10:37 AM CDT (8/29) 9:40 PM CDT (8/29)
Length of Visible Light 14h 31m
Length of Day
13h 28m
Waxing Crescent, 15% of the Moon is Illuminated
Aug 29
Waxing Crescent
Sep 2
First Quarter
Sep 8
Full
Sep 15
Last Quarter
Sep 24
New

Hourly Weather History & Observations

Time (CDT) Temp. Dew Point Humidity Pressure Visibility Wind Dir Wind Speed Gust Speed Precip Events Conditions
12:14 AM 66.2 °F 60.8 °F 83% 29.91 in 10.0 mi SE 5.8 mph - N/A   Overcast
12:34 AM 66.2 °F 60.8 °F 83% 29.90 in 10.0 mi SE 5.8 mph - N/A   Overcast
12:53 AM 66.2 °F 60.8 °F 83% 29.90 in 10.0 mi SE 4.6 mph - N/A   Overcast
1:14 AM 66.2 °F 60.8 °F 83% 29.89 in 10.0 mi SE 4.6 mph - N/A   Overcast
1:34 AM 66.2 °F 60.8 °F 83% 29.88 in 10.0 mi SE 4.6 mph - N/A   Overcast
1:53 AM 66.2 °F 60.8 °F 83% 29.87 in 10.0 mi SE 4.6 mph - N/A   Overcast
2:14 AM 66.2 °F 60.8 °F 83% 29.87 in 10.0 mi SE 4.6 mph - N/A   Overcast
2:34 AM 66.2 °F 60.8 °F 83% 29.85 in 7.0 mi ESE 4.6 mph - N/A   Overcast
2:53 AM 66.2 °F 60.8 °F 83% 29.84 in 7.0 mi SE 5.8 mph - N/A   Overcast
3:14 AM 66.2 °F 60.8 °F 83% 29.84 in 2.5 mi SE 6.9 mph - N/A   Haze
3:34 AM 66.2 °F 60.8 °F 83% 29.83 in 1.8 mi SE 3.5 mph - N/A   Haze
3:53 AM 66.2 °F 60.8 °F 83% 29.83 in 2.5 mi Calm Calm - N/A   Haze
4:14 AM 66.2 °F 60.8 °F 83% 29.82 in 2.5 mi East 3.5 mph - N/A   Haze
4:33 AM 64.4 °F 60.8 °F 88% 29.82 in 3.0 mi East 3.5 mph - N/A   Haze
4:54 AM 64.4 °F 60.8 °F 88% 29.81 in 1.5 mi ESE 4.6 mph - N/A   Haze
5:14 AM 66.2 °F 60.8 °F 83% 29.81 in 3.0 mi East 4.6 mph - N/A   Haze
5:33 AM 66.2 °F 60.8 °F 83% 29.81 in 4.0 mi ESE 4.6 mph - N/A   Haze
5:54 AM 64.4 °F 60.8 °F 88% 29.81 in 2.5 mi ESE 3.5 mph - N/A   Haze
6:13 AM 66.2 °F 60.8 °F 83% 29.80 in 2.5 mi East 3.5 mph - N/A   Haze
6:34 AM 66.2 °F 60.8 °F 83% 29.81 in 1.8 mi ESE 3.5 mph - N/A   Haze
6:54 AM 66.2 °F 60.8 °F 83% 29.80 in 2.0 mi Calm Calm - N/A   Overcast
7:13 AM 66.2 °F 60.8 °F 83% 29.79 in 3.0 mi Calm Calm - N/A   Drizzle
7:34 AM 66.2 °F 60.8 °F 83% 29.79 in 2.5 mi Calm Calm - 0.01 in   Overcast
7:54 AM 66.2 °F 60.8 °F 83% 29.79 in 2.5 mi Calm Calm - 0.02 in Thunderstorm Overcast
8:13 AM 66.2 °F 60.8 °F 83% 29.79 in 2.0 mi Calm Calm - 0.07 in   Overcast
8:34 AM 66.2 °F 60.8 °F 83% 29.79 in 1.5 mi Calm Calm - 0.12 in Thunderstorm Overcast
8:54 AM 66.2 °F 60.8 °F 83% 29.78 in - Calm Calm - 0.01 in Thunderstorm Thunderstorm
9:13 AM 66.2 °F 60.8 °F 83% 29.77 in 10.0 mi Calm Calm - N/A   Overcast
9:34 AM 66.2 °F 60.8 °F 83% 29.77 in 7.0 mi Calm Calm - 0.01 in   Overcast
10:13 AM 66.2 °F 60.8 °F 83% 29.78 in 7.0 mi Calm Calm - 0.02 in   Overcast
10:34 AM 66.2 °F 60.8 °F 83% 29.79 in 4.0 mi Calm Calm - 0.07 in   Overcast
10:54 AM 66.2 °F 60.8 °F 83% 29.78 in 7.0 mi Calm Calm - 0.10 in   Overcast
11:13 AM 66.2 °F 60.8 °F 83% 29.78 in 5.0 mi Calm Calm - 0.03 in   Overcast
11:34 AM 66.2 °F 60.8 °F 83% 29.77 in 3.0 mi Calm Calm - 0.09 in   Overcast
11:54 AM 66.2 °F 60.8 °F 83% 29.77 in 5.0 mi Calm Calm - 0.13 in   Overcast
12:13 PM 66.2 °F 60.8 °F 83% 29.76 in 7.0 mi NE 3.5 mph - 0.02 in   Overcast
12:34 PM 66.2 °F 60.8 °F 83% 29.77 in 10.0 mi Calm Calm - 0.03 in   Overcast
12:54 PM 68.0 °F 62.6 °F 83% 29.77 in 10.0 mi Calm Calm - 0.03 in   Overcast
1:13 PM 69.8 °F 62.6 °F 78% 29.76 in 10.0 mi Calm Calm - N/A   Overcast
1:34 PM 69.8 °F 62.6 °F 78% 29.77 in 10.0 mi Calm Calm - N/A   Overcast
1:54 PM 69.8 °F 62.6 °F 78% 29.77 in 10.0 mi Calm Calm - N/A   Overcast
2:13 PM 69.8 °F 62.6 °F 78% 29.76 in 10.0 mi Calm Calm - N/A   Overcast
2:34 PM 69.8 °F 64.4 °F 83% 29.76 in 10.0 mi Calm Calm - N/A   Overcast
2:54 PM 69.8 °F 64.4 °F 83% 29.76 in 10.0 mi Calm Calm - N/A   Overcast
3:13 PM 69.8 °F 64.4 °F 83% 29.76 in 10.0 mi Calm Calm - N/A   Overcast
3:34 PM 69.8 °F 64.4 °F 83% 29.74 in 10.0 mi NW 4.6 mph - N/A   Overcast
3:54 PM 69.8 °F 64.4 °F 83% 29.74 in 10.0 mi WNW 3.5 mph - N/A   Overcast
4:13 PM 71.6 °F 64.4 °F 78% 29.75 in 10.0 mi Calm Calm - N/A   Overcast
4:34 PM 71.6 °F 64.4 °F 78% 29.74 in 10.0 mi Calm Calm - N/A   Overcast
4:54 PM 71.6 °F 64.4 °F 78% 29.74 in 10.0 mi Calm Calm - N/A   Overcast
5:13 PM 71.6 °F 64.4 °F 78% 29.75 in 10.0 mi Calm Calm - N/A   Overcast
5:34 PM 69.8 °F 64.4 °F 83% 29.75 in 10.0 mi Calm Calm - N/A   Overcast
5:54 PM 71.6 °F 64.4 °F 78% 29.75 in 10.0 mi Calm Calm - N/A   Overcast
6:13 PM 71.6 °F 64.4 °F 78% 29.75 in 10.0 mi Calm Calm - N/A   Overcast
6:34 PM 71.6 °F 64.4 °F 78% 29.75 in 10.0 mi Calm Calm - N/A   Overcast
6:54 PM 69.8 °F 64.4 °F 83% 29.76 in 10.0 mi Calm Calm - N/A   Overcast
7:13 PM 69.8 °F 64.4 °F 83% 29.77 in 10.0 mi Calm Calm - N/A   Overcast
7:34 PM 69.8 °F 64.4 °F 83% 29.77 in 10.0 mi Calm Calm - N/A   Overcast
7:54 PM 69.8 °F 64.4 °F 83% 29.77 in 10.0 mi Calm Calm - N/A   Overcast
8:14 PM 69.8 °F 62.6 °F 78% 29.78 in 10.0 mi Calm Calm - N/A   Overcast
8:34 PM 69.8 °F 62.6 °F 78% 29.78 in 10.0 mi Calm Calm - N/A   Overcast
8:53 PM 68.0 °F 62.6 °F 83% 29.78 in 10.0 mi Calm Calm - N/A   Overcast
9:14 PM 68.0 °F 62.6 °F 83% 29.78 in 7.0 mi Calm Calm - N/A   Overcast
9:33 PM 68.0 °F 62.6 °F 83% 29.78 in 3.0 mi Calm Calm - N/A   Haze
9:54 PM 68.0 °F 62.6 °F 83% 29.79 in 10.0 mi Calm Calm - N/A   Overcast
10:14 PM 68.0 °F 62.6 °F 83% 29.79 in 7.0 mi Calm Calm - N/A   Overcast
10:33 PM 66.2 °F 60.8 °F 83% 29.79 in 2.5 mi Calm Calm - N/A   Haze
10:54 PM 68.0 °F 62.6 °F 83% 29.80 in 5.0 mi Calm Calm - N/A   Haze
11:14 PM 68.0 °F 62.6 °F 83% 29.80 in 7.0 mi Calm Calm - N/A   Overcast
11:33 PM 66.2 °F 60.8 °F 83% 29.79 in 10.0 mi Calm Calm - N/A   Overcast
11:54 PM 66.2 °F 60.8 °F 83% 29.78 in 10.0 mi Calm Calm - N/A   Overcast